This demonstration page uses our WeatherBlox Daily Observations layout. Learn more.

39.08367, -84.50855

Hourly Observations for June 21, 2019

Temp ( °F °C ) Dew Point ( °F °C ) Humidity (%) Winds ( mph kmh ) Pressure ( in mb ) Visibility ( mi km ) Precip ( " mm )
12:01 am 00:01 Cloudy 69 20.6 62 16.7 78 78 WNW 3 6 29.85 1011 10 16.09344 0 0
12:53 am 00:53 Cloudy 68 20 62 16.7 81 81 W 6 9 29.85 1011 10 16.09344 0 0
1:53 am 01:53 Cloudy 67 19.4 61 16.1 81 81 WNW 6 9 29.85 1011 10 16.09344 0 0
2:00 am 02:00 Cloudy 67 19.4 61 16.1 81 81 WNW 7 11 29.88 1012 10 16.09344 0 0
2:53 am 02:53 Cloudy 67 19.4 61 16.1 81 81 WNW 6 9 29.88 1012 10 16.09344 0 0
3:53 am 03:53 Cloudy 66 18.9 61 16.1 84 84 NW 8 13 29.88 1012 10 16.09344 0 0
4:53 am 04:53 Cloudy 66 18.9 61 16.1 84 84 WNW 8 13 29.91 1013 10 16.09344 0 0
5:53 am 05:53 Cloudy 65 18.3 61 16.1 87 87 WNW 7 11 29.91 1013 10 16.09344 0 0
6:53 am 06:53 Cloudy 65 18.3 61 16.1 87 87 VRB 5 7 29.94 1014 10 16.09344 0 0
7:53 am 07:53 Mostly Cloudy 66 18.9 61 16.1 84 84 VRB 6 9 29.97 1015 10 16.09344 0 0
8:53 am 08:53 Partly Cloudy 70 21.1 61 16.1 73 73 N 8 13 30 1016 10 16.09344 0 0
9:10 am 09:10 Mostly Cloudy 71 21.7 61 16.1 71 71 N 7 11 30 1016 10 16.09344 0 0
9:38 am 09:38 Partly Cloudy 71 21.7 60 15.6 68 68 NNE 7 11 30 1016 10 16.09344 0 0
9:53 am 09:53 Partly Cloudy 71 21.7 60 15.6 68 68 E 3 6 30 1016 10 16.09344 0 0
10:53 am 10:53 Sunny 72 22.2 59 15 64 64 Calm 30 1016 10 16.09344 0 0
11:53 am 11:53 Partly Cloudy 75 23.9 60 15.6 60 60 ENE 6 9 30 1016 10 16.09344 0 0
12:53 pm 12:53 Partly Cloudy 76 24.4 60 15.6 58 58 SE 5 7 30 1016 10 16.09344 0 0
1:53 pm 13:53 Partly Cloudy 77 25 59 15 54 54 Calm 30 1016 10 16.09344 0 0
2:53 pm 14:53 Sunny 79 26.1 57 13.9 47 47 Calm 29.97 1015 10 16.09344 0 0
3:53 pm 15:53 Partly Cloudy 79 26.1 57 13.9 47 47 SSW 6 9 29.97 1015 10 16.09344 0 0
4:53 pm 16:53 Mostly Sunny 79 26.1 60 15.6 52 52 S 7 11 29.97 1015 10 16.09344 0 0
5:53 pm 17:53 Partly Cloudy 78 25.6 61 16.1 56 56 SSE 6 9 29.97 1015 10 16.09344 0 0
6:53 pm 18:53 Mostly Cloudy 76 24.4 64 17.8 67 67 SSE 5 7 29.97 1015 10 16.09344 0 0
7:53 pm 19:53 Cloudy 74 23.3 62 16.7 67 67 SW 9 15 29.97 1015 10 16.09344 0 0
8:53 pm 20:53 Mostly Sunny 72 22.2 63 17.2 73 73 SW 9 15 29.97 1015 10 16.09344 0 0
9:53 pm 21:53 Partly Cloudy 73 22.8 61 16.1 66 66 SE 12 19 29.85 1011 10 16.09344 0 0
10:19 pm 22:19 Mostly Clear 72 22.2 62 16.7 71 71 WNW 3 6 29.94 1014 10 16.09344 0 0
10:53 pm 22:53 Mostly Clear 69 20.6 64 17.8 84 84 SE 5 7 29.97 1015 10 16.09344 0 0
11:53 pm 23:53 Partly Cloudy 69 20.6 65 18.3 87 87 Calm 29.94 1014 10 16.09344 0 0

Powered by AerisWeather